Temperature
6 5 5 6 7 7 7 7 7 8 9 9 8 9 9 9 9 9 9 9 10 10 11 11 11 11 11 11 11 11 12 12 12 12 12 12 12 12 12 12 12 12 12 12
4 5 6 7 7 7 7 7 7 8 9 9 8 8 8 8 9 9 9 9 9 10 10 10 10 10 11 11 11 11 11 11 11 11 11 12 12 12 12 11 11 11 11 11
4 5 6 7 6 6 7 6 7 7 8 8 8 8 8 8 9 9 9 9 9 9 9 9 10 10 10 10 10 11 11 11 11 11 11 11 11 11 11 11 11 11 11 11
4 5 6 6 6 6 6 7 7 7 7 6 7 6 7 7 8 8 8 8 8 9 9 9 9 9 10 10 10 10 10 10 10 11 11 11 11 11 11 11 11 11 10 10
4 5 5 6 6 6 6 7 7 7 6 6 6 6 6 7 7 7 7 8 8 8 8 8 9 9 9 9 9 10 10 10 10 10 10 10 10 11 10 10 10 10 10 10
4 5 5 5 6 7 6 6 6 5 5 5 6 5 6 6 7 7 7 7 8 8 8 8 8 8 9 9 9 9 9 9 9 10 10 10 10 10 10 10 10 10 10 10
3 4 5 6 5 6 5 4 4 4 4 5 6 5 5 6 7 7 7 7 7 7 7 7 8 8 8 8 8 9 9 9 9 9 9 9 9 10 10 10 10 10 10 10
2 3 4 5 5 5 5 4 4 4 4 5 5 5 5 6 6 7 7 7 7 7 7 7 7 7 8 8 8 8 8 8 8 9 9 9 9 9 9 9 9 9 9 9
2 3 4 5 5 5 4 4 4 4 3 4 4 4 5 6 6 6 6 6 6 6 6 6 7 7 7 7 8 8 8 8 8 8 8 9 9 9 9 9 9 9 9 9
2 2 3 4 5 5 5 4 3 3 4 4 4 4 4 5 5 5 5 5 6 6 6 6 6 6 7 7 7 7 7 7 8 8 8 8 8 8 8 8 8 8 8 8
2 1 2 3 3 3 4 4 3 3 3 3 4 4 5 5 5 5 5 5 5 5 6 5 5 6 6 6 6 6 7 7 7 7 7 7 8 8 8 8 8 8 8 8
1 0 1 2 3 3 3 3 3 3 2 2 3 4 5 4 4 4 5 5 5 5 5 5 5 5 5 6 6 6 6 6 6 7 7 7 7 7 7 7 7 7 7 7
1 -0 0 1 2 2 2 2 2 2 2 1 2 4 4 3 4 4 4 4 4 4 5 5 5 5 5 5 5 5 5 6 6 6 6 6 7 7 7 7 7 7 7 7
1 -1 -0 1 2 1 1 2 2 2 2 1 2 3 3 3 3 3 3 4 4 4 4 4 4 4 4 4 5 5 5 5 5 5 6 6 6 6 6 6 6 6 6 6
-0 -1 -1 -0 1 1 1 2 2 1 1 2 2 2 3 2 2 2 2 3 3 3 3 3 3 3 4 4 4 4 4 4 5 5 5 5 5 6 6 6 6 6 6 6
-2 -1 -1 -0 1 1 1 1 2 2 2 2 2 2 2 2 2 1 1 2 2 2 2 2 3 3 3 3 3 3 4 4 4 4 4 4 5 5 5 5 5 5 5 5
-2 -2 -1 -1 0 1 0 0 1 1 1 1 2 1 1 1 1 1 1 1 1 2 2 2 2 2 3 3 3 3 3 3 3 3 4 4 4 4 4 4 5 5 5 5
-2 -2 -2 -1 -1 -0 0 0 0 0 0 0 1 1 0 0 1 1 1 1 1 1 1 2 2 2 2 2 2 3 3 3 3 3 3 3 4 4 4 4 4 4 4 4
-2 -2 -2 -2 -2 -1 0 -0 -1 -1 -1 -1 -1 -1 -1 -0 0 0 1 1 1 1 1 1 1 1 2 2 2 2 2 2 2 2 3 3 3 3 3 4 4 4 4 4
-3 -3 -3 -3 -2 -1 -0 -0 -1 -1 -1 -1 -1 -1 -2 -1 -1 -1 0 0 0 0 1 1 1 1 1 1 2 2 2 2 2 2 2 2 2 2 3 3 3 3 3 3
-3 -4 -4 -3 -2 -2 -1 -1 -1 -1 -1 -1 -1 -1 -2 -2 -1 -1 -0 -0 -0 -0 0 0 1 1 1 1 1 1 2 2 2 2 2 2 2 2 2 2 3 3 3 3
-3 -4 -4 -4 -3 -2 -2 -2 -2 -2 -1 -2 -2 -2 -2 -2 -1 -1 -1 -1 -1 -0 -0 -0 0 0 0 1 1 1 1 1 2 2 2 2 2 2 2 2 2 2 2 2
-5 -4 -4 -4 -3 -2 -2 -2 -2 -2 -2 -2 -2 -2 -2 -2 -2 -2 -2 -1 -1 -1 -1 -1 -1 -0 -0 -0 0 0 1 1 1 1 1 1 1 1 1 1 1 2 2 1
-5 -5 -5 -4 -4 -3 -2 -2 -2 -2 -2 -2 -2 -2 -2 -2 -2 -2 -2 -2 -2 -2 -1 -1 -1 -1 -1 -1 -0 -0 0 0 0 1 1 1 1 1 1 1 1 1 1 1
-5 -5 -5 -5 -4 -4 -3 -3 -2 -3 -3 -3 -2 -2 -3 -3 -3 -3 -3 -3 -2 -2 -2 -2 -2 -1 -1 -1 -1 -0 -0 -0 -0 -0 -0 -0 -0 -0 0 0 0 0 0 0
-6 -5 -5 -4 -4 -4 -3 -3 -3 -3 -3 -3 -3 -3 -3 -3 -3 -3 -3 -3 -3 -3 -2 -2 -2 -2 -1 -1 -1 -1 -1 -1 -1 -1 -1 -1 -1 -1 -1 -0 -0 -1 -1 -1
Wind_Speed
1 2 5 8 9 6 4 4 5 6 4 4 6 6 5 2 3 5 4 4 3 4 3 3 4 4 5 6 6 7 7 6 6 5 4 4 4 3 3 3 6 7 8 8
1 4 7 5 4 4 5 5 5 3 2 3 5 7 5 3 4 5 6 6 5 3 2 3 3 4 5 6 6 6 6 6 6 5 4 3 4 3 3 3 4 6 7 7
4 4 4 4 5 6 7 7 6 4 2 1 2 4 5 4 2 3 4 5 5 6 6 5 4 3 4 5 6 6 6 6 5 5 4 4 3 3 2 2 2 3 6 7
3 4 3 4 5 5 7 7 6 5 3 3 4 4 5 4 3 4 4 4 4 4 5 5 4 4 4 4 4 5 5 6 6 6 6 7 6 5 5 4 4 3 5 6
3 2 3 5 6 5 5 3 3 4 4 2 2 3 5 3 5 6 6 5 4 4 6 5 5 5 4 3 4 4 4 5 5 5 7 7 5 3 3 4 4 4 3 5
3 2 3 4 4 4 1 2 3 2 2 4 6 5 4 5 9 6 5 5 4 4 4 4 3 3 3 3 3 4 4 4 5 5 6 6 6 6 6 5 5 4 3 3
2 2 1 0 1 1 2 4 1 0 2 5 5 5 6 5 6 7 8 6 4 3 4 4 4 4 3 3 3 4 4 4 4 5 5 6 6 7 8 7 7 6 4 3
1 3 2 0 2 3 5 6 4 4 5 2 2 5 4 4 3 3 5 5 3 3 3 4 4 5 4 4 3 3 4 4 4 5 4 5 5 5 4 5 5 6 5 4
1 4 3 2 1 3 4 4 3 3 1 1 3 3 4 2 1 2 3 3 3 3 3 4 3 4 4 4 4 4 4 4 4 4 4 4 5 5 5 4 4 4 4 4
1 3 3 2 1 1 2 3 3 3 3 2 3 3 3 3 3 2 3 4 3 3 3 3 3 3 3 3 3 3 3 3 3 4 4 4 4 5 5 4 5 4 5 4
0 1 3 2 1 2 1 2 2 2 3 3 3 4 2 4 4 5 5 4 4 3 3 3 3 3 2 2 2 2 2 2 2 3 3 3 3 4 4 4 5 5 5 5
1 1 2 3 3 1 1 3 3 3 2 2 2 4 4 1 1 3 3 2 2 2 3 3 2 2 2 2 2 2 1 2 2 3 3 3 3 3 4 4 4 5 5 5
1 2 1 3 2 3 1 0 1 2 3 3 3 4 4 5 4 1 0 0 1 2 2 2 2 2 2 2 1 1 1 1 1 2 3 3 3 3 4 3 3 4 4 5
2 2 4 5 4 2 2 2 1 3 3 3 5 5 5 5 5 4 2 1 1 2 2 2 2 1 1 1 1 0 0 1 1 2 3 3 3 4 4 3 3 4 4 5
2 1 2 4 4 2 3 4 3 4 5 6 5 5 6 4 3 2 2 1 2 2 1 1 1 1 1 1 0 0 0 0 1 2 3 3 3 3 3 3 3 3 4 4
2 1 1 3 3 2 3 5 5 5 4 5 5 6 3 2 2 2 2 1 1 1 1 1 1 1 0 0 1 1 1 0 1 2 2 2 2 3 3 3 3 3 3 3
0 1 0 2 3 1 3 5 5 4 3 4 5 5 2 3 2 1 2 2 1 1 1 1 1 1 1 1 1 1 1 1 1 1 1 1 2 3 2 2 3 3 3 3
2 2 1 1 2 3 5 2 2 3 1 1 2 2 2 3 3 2 2 2 2 2 2 2 2 2 2 2 1 1 0 1 1 1 1 1 1 2 2 2 2 2 2 3
3 3 2 1 1 4 5 2 0 2 3 1 1 2 3 3 3 2 3 3 2 2 2 2 2 2 2 2 1 0 1 1 1 1 1 1 2 2 2 2 2 2 2 2
3 2 2 2 2 4 4 4 3 1 3 1 0 2 3 2 1 4 4 5 3 3 2 2 2 2 2 2 1 1 1 1 1 1 1 1 2 2 2 3 2 1 2 2
1 1 1 2 3 5 5 5 1 3 4 3 2 3 2 2 4 4 4 4 2 2 2 2 2 1 2 2 1 1 0 1 1 1 1 1 1 2 2 1 1 2 2 2
4 3 3 2 3 6 3 1 2 4 3 2 3 3 3 4 4 3 3 3 3 3 2 2 2 2 2 2 2 1 1 1 1 2 2 1 1 1 1 1 1 2 3 2
4 5 4 6 6 3 1 2 3 2 3 3 2 3 2 3 3 2 2 2 2 2 2 2 2 2 3 2 2 1 2 1 1 2 2 2 2 1 1 1 2 2 2 2
3 2 2 4 5 4 4 3 3 2 3 3 2 2 2 2 2 2 2 2 2 2 2 2 2 2 3 3 3 2 1 1 2 2 2 2 2 1 1 1 1 2 2 2
4 2 2 4 5 4 3 3 3 3 3 2 2 2 2 2 2 2 2 2 2 2 2 2 1 2 3 3 3 3 2 1 2 2 2 2 1 1 1 1 0 1 1 2
3 4 4 6 5 4 4 4 3 2 3 3 2 2 2 1 2 1 1 1 2 2 2 2 2 2 3 3 3 3 2 1 2 2 1 1 1 1 1 1 2 3 2 1
Wind_Direction
139 150 207 210 207 207 195 200 222 232 234 197 219 239 247 219 193 190 187 183 194 204 186 149 141 142 141 138 142 148 146 147 143 146 149 149 156 156 158 152 152 148 146 141
89 224 232 224 228 226 214 214 230 242 228 207 217 239 236 227 212 195 186 188 198 191 144 142 136 135 144 151 154 155 158 159 159 165 168 165 153 159 161 154 148 151 149 149
197 247 237 215 222 228 233 212 216 234 269 221 164 254 237 243 219 203 197 187 188 180 179 172 166 163 155 162 168 171 170 165 163 154 135 126 106 106 130 157 171 164 158 153
235 263 226 217 214 211 234 224 223 222 179 219 180 225 238 219 220 210 210 196 195 187 177 170 175 175 174 177 171 167 167 164 161 154 158 164 164 170 184 176 176 167 158 155
241 236 207 219 223 212 229 244 233 219 188 186 181 188 258 203 215 217 212 201 195 186 175 171 181 183 171 162 164 162 161 161 160 162 169 169 166 166 157 153 157 163 163 161
245 255 205 222 228 217 212 46 36 52 135 214 203 183 250 215 213 209 203 202 193 185 175 173 171 150 140 138 151 153 158 166 166 165 170 169 167 162 158 163 172 175 171 164
317 294 309 309 189 255 118 117 94 19 216 233 189 184 243 241 218 202 196 199 197 177 173 165 154 149 145 148 159 163 162 170 171 168 176 179 177 174 176 178 180 175 174 178
340 287 268 282 193 201 199 166 170 187 204 258 176 212 253 266 221 177 173 176 175 170 172 170 168 166 166 167 167 165 176 181 180 178 183 182 176 175 179 183 181 181 183 184
215 274 287 263 235 171 172 198 195 140 126 143 230 272 297 328 59 132 151 153 175 192 183 173 161 161 166 174 179 178 184 185 188 188 180 176 175 172 175 179 176 176 172 169
201 268 298 317 23 338 165 152 114 137 160 208 237 238 240 243 213 184 182 193 202 198 183 174 166 168 170 173 176 167 170 183 184 182 182 180 179 175 173 171 173 175 172 165
5 214 311 5 194 213 135 146 154 153 161 169 202 254 248 217 197 188 202 208 197 197 188 179 177 170 160 135 131 150 161 159 172 177 179 170 171 167 168 173 178 178 174 166
322 127 254 266 290 293 163 175 155 158 206 179 179 269 325 296 225 194 201 213 189 177 172 168 160 146 137 136 138 144 165 181 188 177 164 163 156 153 161 172 175 169 171 170
7 97 37 340 335 8 2 11 146 131 126 160 184 257 350 16 13 2 143 98 119 126 117 122 134 141 149 156 158 155 159 185 184 167 159 155 154 160 168 172 169 167 166 166
70 135 182 203 227 225 265 278 184 144 178 214 225 249 306 337 349 356 13 83 104 117 110 111 123 133 141 150 166 186 237 196 168 163 166 166 170 170 172 168 165 166 166 168
79 208 245 254 250 226 253 255 227 202 198 211 236 248 278 291 298 326 347 56 73 87 82 105 128 103 65 43 353 265 265 267 173 160 171 181 172 160 155 158 164 161 165 171
61 195 322 299 258 223 274 268 241 236 227 225 242 271 296 317 13 12 3 33 50 352 336 338 353 73 42 334 292 272 275 263 167 167 179 175 159 154 156 159 158 155 163 165
285 139 46 286 312 22 273 248 220 210 210 203 231 255 323 345 345 304 300 298 267 285 318 330 317 296 291 280 256 246 250 237 146 140 138 156 161 155 156 149 142 155 169 160
173 144 163 279 29 228 244 256 207 197 247 237 248 280 289 289 298 295 310 302 301 290 293 309 315 317 319 322 314 316 316 179 164 147 142 127 144 156 148 141 151 164 169 168
176 157 155 158 224 274 292 301 210 210 270 296 249 310 329 336 346 335 346 347 306 295 296 298 301 311 326 331 334 57 75 141 150 157 160 162 157 153 156 160 170 179 164 166
72 98 134 149 182 239 270 299 302 144 269 291 221 287 307 353 317 286 330 340 336 345 346 341 345 357 355 339 3 114 123 140 170 187 176 156 156 163 172 178 172 160 152 159
48 40 166 199 222 261 279 294 42 166 251 308 268 257 268 244 242 275 318 328 331 344 350 359 9 3 334 342 32 85 113 208 215 153 135 128 141 159 166 161 154 140 134 128
188 183 204 180 207 256 302 59 162 236 286 296 283 270 263 266 281 299 321 331 346 3 6 9 9 350 349 7 37 43 353 331 69 110 116 116 118 127 129 123 120 132 140 139
206 200 203 200 217 255 273 229 255 256 274 280 269 278 275 273 280 300 316 331 347 354 351 355 0 351 356 4 26 31 347 6 74 96 105 99 84 78 103 135 143 141 146 154
273 221 206 256 267 273 281 288 304 291 278 285 271 267 267 264 273 293 307 323 334 336 337 349 6 5 354 354 0 4 359 39 104 111 107 105 107 87 64 80 149 162 162 167
243 208 223 257 278 301 289 286 296 307 310 318 327 301 269 255 274 271 286 298 308 323 332 345 359 352 341 351 358 1 10 70 104 120 124 115 110 116 79 35 344 191 188 187
217 199 205 242 246 232 261 276 298 294 307 310 312 325 315 266 257 274 295 308 325 337 345 354 352 348 342 352 354 356 6 76 123 128 127 130 130 126 115 80 38 32 48 74
Height
1465 1469 1469 1468 1468 1469 1471 1473 1473 1470 1466 1469 1471 1471 1469 1469 1469 1470 1470 1471 1472 1474 1475 1477 1478 1480 1482 1483 1485 1487 1490 1492 1495 1497 1498 1500 1502 1505 1507 1509 1511 1512 1513 1514
1469 1469 1466 1466 1467 1468 1470 1472 1473 1469 1466 1467 1470 1470 1468 1468 1468 1468 1469 1470 1471 1472 1473 1475 1476 1478 1479 1480 1483 1485 1488 1490 1492 1495 1497 1499 1501 1503 1505 1507 1509 1510 1511 1512
1468 1468 1465 1466 1467 1468 1468 1470 1471 1469 1466 1466 1470 1472 1469 1467 1466 1467 1467 1468 1469 1470 1470 1472 1474 1475 1477 1478 1480 1483 1485 1487 1490 1492 1495 1497 1499 1500 1503 1504 1506 1508 1510 1510
1468 1465 1465 1466 1466 1467 1469 1465 1466 1467 1470 1474 1472 1478 1469 1467 1466 1466 1466 1467 1467 1468 1469 1470 1472 1473 1475 1477 1479 1481 1483 1485 1487 1490 1492 1494 1495 1496 1499 1502 1504 1506 1507 1508
1467 1465 1465 1465 1464 1465 1466 1463 1464 1465 1470 1474 1473 1478 1471 1466 1466 1464 1464 1464 1465 1466 1467 1468 1470 1471 1473 1475 1477 1479 1481 1483 1485 1487 1489 1491 1493 1495 1497 1499 1501 1503 1505 1506
1466 1464 1464 1464 1463 1463 1464 1465 1467 1469 1472 1476 1471 1475 1472 1466 1461 1461 1462 1463 1463 1464 1465 1467 1468 1470 1472 1474 1475 1477 1478 1480 1482 1484 1487 1489 1491 1493 1494 1496 1499 1501 1502 1504
1469 1465 1464 1463 1464 1464 1466 1472 1477 1478 1479 1474 1467 1471 1468 1460 1457 1458 1459 1460 1462 1462 1463 1464 1466 1467 1469 1471 1473 1474 1476 1478 1480 1482 1484 1486 1489 1491 1492 1494 1496 1498 1500 1501
1474 1471 1466 1464 1465 1466 1467 1470 1477 1479 1477 1473 1469 1470 1465 1457 1455 1455 1457 1459 1460 1461 1462 1462 1463 1465 1466 1468 1470 1472 1474 1475 1477 1479 1481 1484 1486 1488 1490 1492 1494 1496 1498 1499
1477 1472 1465 1463 1463 1464 1466 1470 1470 1475 1477 1478 1472 1468 1462 1456 1456 1456 1457 1458 1459 1459 1460 1461 1462 1463 1465 1467 1468 1470 1472 1473 1475 1477 1479 1481 1483 1485 1487 1490 1492 1494 1495 1497
1475 1475 1467 1464 1463 1464 1464 1466 1472 1475 1477 1476 1471 1470 1466 1459 1457 1456 1456 1457 1457 1458 1459 1460 1461 1462 1463 1465 1467 1469 1470 1471 1473 1474 1476 1479 1481 1483 1485 1487 1489 1491 1493 1495
1475 1477 1472 1469 1467 1467 1467 1469 1470 1473 1474 1476 1475 1470 1458 1456 1455 1455 1455 1455 1456 1457 1457 1458 1460 1461 1462 1464 1465 1466 1468 1469 1471 1472 1474 1476 1478 1480 1482 1484 1487 1489 1490 1492
1475 1478 1477 1472 1468 1466 1466 1467 1470 1473 1477 1475 1475 1471 1456 1455 1454 1453 1454 1455 1456 1456 1457 1458 1459 1460 1461 1462 1463 1464 1465 1467 1468 1470 1472 1474 1476 1478 1480 1482 1484 1486 1487 1489
1475 1480 1481 1476 1475 1471 1469 1468 1468 1471 1475 1478 1477 1469 1457 1455 1454 1454 1454 1455 1455 1456 1456 1457 1458 1459 1459 1460 1461 1462 1463 1465 1466 1468 1469 1471 1473 1475 1477 1479 1481 1483 1485 1486
1474 1480 1481 1477 1472 1472 1472 1469 1468 1471 1475 1476 1471 1465 1460 1458 1457 1456 1455 1455 1455 1455 1456 1456 1457 1457 1458 1459 1459 1460 1461 1462 1464 1465 1467 1468 1470 1472 1475 1477 1479 1480 1482 1484
1475 1480 1478 1474 1470 1470 1469 1467 1467 1469 1469 1471 1465 1464 1461 1459 1459 1457 1456 1455 1455 1455 1456 1456 1456 1456 1457 1457 1458 1458 1459 1460 1462 1463 1464 1466 1468 1470 1472 1474 1476 1478 1479 1481
1478 1480 1478 1474 1468 1468 1468 1466 1466 1465 1465 1465 1463 1463 1460 1459 1459 1458 1457 1456 1455 1455 1455 1455 1455 1455 1455 1455 1456 1456 1457 1458 1459 1461 1462 1464 1466 1468 1469 1471 1473 1474 1476 1478
1480 1481 1480 1477 1472 1469 1472 1466 1464 1464 1463 1463 1463 1462 1460 1459 1459 1458 1457 1456 1455 1455 1454 1454 1454 1454 1454 1455 1455 1455 1455 1456 1458 1459 1460 1462 1463 1465 1467 1468 1470 1472 1473 1475
1480 1481 1482 1480 1477 1478 1470 1464 1463 1463 1463 1462 1461 1461 1460 1459 1458 1458 1457 1456 1455 1454 1454 1453 1453 1453 1453 1453 1454 1454 1454 1455 1456 1457 1458 1460 1461 1462 1464 1466 1467 1469 1470 1472
1476 1479 1482 1482 1482 1475 1467 1464 1465 1465 1464 1463 1462 1461 1460 1459 1457 1457 1456 1455 1454 1454 1453 1453 1452 1452 1452 1452 1452 1452 1453 1453 1454 1455 1456 1458 1459 1460 1462 1463 1465 1466 1467 1469
1476 1478 1482 1483 1481 1477 1468 1464 1462 1465 1465 1462 1461 1460 1460 1458 1459 1457 1455 1454 1453 1452 1452 1451 1451 1451 1450 1451 1451 1451 1451 1452 1452 1453 1454 1456 1457 1458 1460 1461 1462 1464 1465 1466
1481 1483 1485 1484 1482 1474 1467 1463 1462 1469 1465 1462 1460 1459 1459 1458 1458 1456 1454 1453 1452 1451 1451 1450 1450 1449 1449 1449 1449 1449 1449 1450 1451 1452 1453 1454 1455 1456 1458 1459 1460 1461 1462 1464
1481 1483 1485 1484 1482 1476 1465 1463 1466 1465 1461 1460 1458 1457 1456 1455 1454 1453 1452 1451 1450 1449 1449 1448 1448 1447 1448 1448 1448 1448 1448 1449 1449 1450 1451 1452 1453 1454 1456 1457 1457 1458 1460 1461
1479 1478 1477 1476 1473 1466 1464 1463 1462 1461 1460 1458 1457 1455 1454 1453 1452 1451 1450 1450 1449 1448 1447 1447 1447 1446 1446 1447 1447 1447 1447 1447 1448 1449 1449 1450 1451 1452 1453 1454 1455 1456 1457 1458
1475 1473 1473 1471 1466 1464 1463 1461 1460 1459 1458 1457 1455 1454 1452 1451 1450 1449 1449 1448 1447 1447 1446 1446 1445 1445 1445 1445 1446 1446 1446 1446 1447 1447 1448 1448 1449 1450 1451 1452 1453 1453 1454 1455
1472 1471 1471 1469 1464 1462 1460 1460 1459 1458 1456 1455 1453 1452 1451 1450 1449 1448 1447 1447 1446 1446 1445 1445 1445 1444 1444 1444 1444 1444 1444 1445 1445 1446 1446 1447 1448 1448 1449 1450 1450 1451 1452 1453
1468 1468 1469 1465 1462 1462 1459 1458 1457 1456 1454 1453 1452 1450 1450 1449 1447 1447 1446 1446 1445 1445 1444 1444 1444 1443 1443 1443 1443 1443 1443 1443 1444 1444 1445 1445 1446 1447 1447 1448 1449 1449 1450 1451